This is the latest recevied weather packets stored in our database for station/object W1GK. If no packets are shown the sender has not sent any weather packets the latest 1 day(s).
| Time | Temp. | Humidity | Pressure | Rain* | Wind** | Luminosity | Snow |
|---|---|---|---|---|---|---|---|
| 1778013601 | 24.44° C | 21% | 1010.4 hPa | 0 mm | 1.79 m/s, 159° | 536 W/m² | - |
| 1778013001 | 23.89° C | 20% | 1010.3 hPa | 0 mm | 1.34 m/s, 193° | 842 W/m² | - |
| 1778012402 | 23.89° C | 21% | 1010.4 hPa | 0 mm | 1.34 m/s, 216° | 960 W/m² | - |
| 1778011800 | 23.89° C | 21% | 1010.5 hPa | 0 mm | 2.68 m/s, 164° | 974 W/m² | - |
| 1778011203 | 23.33° C | 21% | 1010.6 hPa | 0 mm | 0.89 m/s, 262° | 1034 W/m² | - |
| 1778010599 | 22.78° C | 23% | 1010.7 hPa | 0 mm | 1.79 m/s, 209° | 1206 W/m² | - |
| 1778010001 | 22.22° C | 23% | 1010.9 hPa | 0 mm | 1.79 m/s, 245° | 410 W/m² | - |
| 1778009400 | 22.22° C | 25% | 1010.9 hPa | 0 mm | 0.89 m/s, 196° | 394 W/m² | - |
| 1778008800 | 22.22° C | 24% | 1011 hPa | 0 mm | 1.34 m/s, 157° | 364 W/m² | - |
| 1778008199 | 21.67° C | 23% | 1011 hPa | 0 mm | 0.89 m/s, 227° | 870 W/m² | - |
| 1778007602 | 21.67° C | 25% | 1011 hPa | 0 mm | 2.24 m/s, 117° | 425 W/m² | - |
| 1778006998 | 21.67° C | 25% | 1011.1 hPa | 0 mm | 1.79 m/s, 140° | 287 W/m² | - |
| 1778006400 | 21.11° C | 26% | 1011.2 hPa | 0 mm | 1.79 m/s, 159° | 1058 W/m² | - |
| 1778005798 | 21.11° C | 26% | 1011.2 hPa | 0 mm | 2.24 m/s, 195° | 309 W/m² | - |
| 1778005198 | 20.56° C | 26% | 1011.2 hPa | 0 mm | 0.89 m/s, 169° | 265 W/m² | - |
| 1778004598 | 21.11° C | 26% | 1011.2 hPa | 0 mm | 2.24 m/s, 234° | 262 W/m² | - |
| 1778003997 | 21.11° C | 26% | 1011.2 hPa | 0 mm | 2.24 m/s, 150° | 854 W/m² | - |
| 1778003398 | 21.67° C | 27% | 1011.1 hPa | 0 mm | 2.24 m/s, 184° | 861 W/m² | - |
| 1778002799 | 20.56° C | 28% | 1011.1 hPa | 0 mm | 2.68 m/s, 190° | 870 W/m² | - |
| 1778002199 | 20.56° C | 28% | 1011.1 hPa | 0 mm | 2.24 m/s, 185° | 816 W/m² | - |
| 1778001598 | 20° C | 29% | 1011.2 hPa | 0 mm | 1.79 m/s, 273° | 707 W/m² | - |
| 1778000998 | 20° C | 29% | 1011.2 hPa | 0 mm | 2.24 m/s, 107° | 731 W/m² | - |
| 1778000399 | 19.44° C | 29% | 1011.2 hPa | 0 mm | 1.34 m/s, 185° | 527 W/m² | - |
| 1777999799 | 19.44° C | 30% | 1011.2 hPa | 0 mm | 0.89 m/s, 150° | 694 W/m² | - |
| 1777999199 | 18.89° C | 31% | 1011.2 hPa | 0 mm | 1.34 m/s, 209° | 633 W/m² | - |
* Rain latest hour (hover to see other rain measurements)
** Current wind speed in m/s (hover to see current wind gust speed)